• Processing (Info)

  • MPEC 2022-S364 : 2022 SE29

    The following Minor Planet Electronic Circular may be linked-to from your own Web pages, but must not otherwise be redistributed electronically.

    A form allowing access to any MPEC is at the bottom of this page.


    Read MPEC 2022-S363 Read MPEC 2022-S365


    M.P.E.C. 2022-S364                           Issued 2022 September 30, 11:49 UT
    
         The Minor Planet Electronic Circulars contain information on unusual
             minor planets and routine data on comets.  They are published
        on behalf of Division F of the International Astronomical Union by the
              Minor Planet Center, Smithsonian Astrophysical Observatory,
                              Cambridge, MA 02138, U.S.A.
    
                 Prepared using the Tamkin Foundation Computer Network
    
                                  MPC@CFA.HARVARD.EDU
                URL https://www.minorplanetcenter.net/    ISSN 1523-6714
    
                                    2022 SE29                                
    
    
    Observations:
         K22S29E* C2022 09 23.98444103 56 03.600-62 03 21.10         18.18cVES364M22
         K22S29E  C2022 09 23.98718803 55 58.250-62 02 53.45         18.08cVES364M22
         K22S29E  C2022 09 24.04066203 54 14.983-61 53 48.62         19.02cVES364M22
         K22S29E  C2022 09 24.06586403 53 26.702-61 49 29.68         18.87cVES364M22
         K22S29E KC2022 09 26.13631903 03 36.812-55 35 00.22         18.7 GXES364Y00
         K22S29E KC2022 09 26.14196803 03 30.196-55 34 00.04         19.0 GXES364Y00
         K22S29E KC2022 09 26.14743103 03 24.032-55 33 02.17         19.0 GXES364Y00
         K22S29E  C2022 09 28.00643602 35 09.511-50 06 20.20         18.20cVES364M22
         K22S29E  C2022 09 28.00917302 35 07.358-50 05 53.99         18.73cVES364M22
         K22S29E  C2022 09 28.01282002 35 04.483-50 05 16.66         18.58cVES364M22
         K22S29E  C2022 09 28.03033302 34 50.822-50 02 20.29         18.56cVES364M22
         K22S29E KC2022 09 30.05524 02 14 16.07 -44 42 51.3          18.5 VqES364I47
         K22S29E KC2022 09 30.07581 02 14 05.38 -44 39 55.4          18.5 VqES364I47
         K22S29E KC2022 09 30.08999 02 13 58.09 -44 37 53.3          18.2 VqES364I47
    
    Observer details:
    I47 Pierre Auger Observatory, Malargue.  Observer M. Masek.  0.3-m f/6.8
        reflector + CCD.
    M22 ATLAS South Africa, Sutherland.  Observers L. Denneau, R. Siverd, J.
        Tonry, H. Weiland.  Measurers L. Denneau, N. Erasmus, A. Fitzsimmons, A.
        Lawrence, J. Robinson, R. Siverd, J. Tonry, H. Weiland.  0.5-m Reflector +
        CCD.
    Y00 SONEAR Observatory, Oliveira.  Observer C. Jacques.  0.28-m f/2.2
        reflector + CCD.
    
    Orbital elements:
    2022 SE29                                                Earth MOID = 0.0887 AU
    Epoch 2022 Aug. 9.0 TT = JDT 2459800.5                  Veres                   
    M   0.38296              (2000.0)            P               Q                  
    n   0.34631312     Peri.  186.76816     +0.34312673     +0.93403113             
    a   2.0082761      Node   103.33581     -0.85692884     +0.35455468             
    e   0.6163920      Incl.    5.85418     -0.38462581     +0.04332240             
    P   2.85           H   20.98          G   0.15           U   9                  
    Residuals in seconds of arc
    220923 M22  0.3+  0.2-    220926 Y00  0.9-  1.1+    220928 M22  0.0   0.1-
    220923 M22  0.1+  0.2-    220926 Y00  0.4+  0.6+    220930 I47  0.2+  0.5+
    220924 M22  0.5-  0.6+    220928 M22  0.7+  0.2+    220930 I47  0.6-  0.3-
    220924 M22  0.3-  0.1-    220928 M22  0.5+  1.1-    220930 I47  0.0   0.1+
    220926 Y00  0.2-  1.3+    220928 M22  0.2+  0.4-
    
    Ephemeris:
    2022 SE29                a,e,i = 2.01, 0.62, 6                   q = 0.7704
    Date    TT    R. A. (2000) Decl.     Delta      r    Elong.  Phase     V
    2022 08 31    12 03 39.3 -19 21 58   0.2115  0.8465    35.5   136.1    23.6
    ...
    2022 09 15    10 24 01.4 -54 52 46   0.1068  0.9564    59.7   114.8    20.5
    ...
    2022 09 23    04 31 04.1 -64 42 32   0.1030  1.0253    99.3    75.0    18.7
    ...
    2022 09 29    02 23 59.4 -47 24 07   0.1309  1.0797   123.5    50.7    18.6
    2022 09 30    02 14 39.9 -44 51 23   0.1373  1.0890   126.5    47.7    18.6
    2022 10 01    02 06 49.1 -42 29 11   0.1440  1.0982   129.3    44.9    18.7
    ...
    2022 10 07    01 37 36.9 -31 28 46   0.1901  1.1544   141.5    32.6    19.1
    ...
    2022 10 15    01 19 34.1 -22 27 34   0.2624  1.2302   149.2    24.5    19.7
    ...
    2022 10 30    01 06 51.5 -13 01 26   0.4237  1.3722   148.4    22.3    20.9
    
    M. P. C. Staff               (C) Copyright 2022 MPC           M.P.E.C. 2022-S364
    


    Read MPEC 2022-S363 Read MPEC 2022-S365


    MPEC number:

    Enter an MPEC number in one of the following forms:

    • 1997-B01 (the full form)
    • J97B01 (the packed version of the full form)
    • B01 (the abbreviated form)